EW3700 Weather Reports


Display with metric or nautical units.
time (UTC)temp
F
wind
direction
speed
MPH
gust
MPH
rain 1hr
in
rain 24hr
in
rain mn
in
humidity
%
barometer
mb
20240722131038 70 180 1.0 3.0 0.00 1.56 0.00 87 1018.7
20240722130018 70 0.0 1.0 0.00 1.56 0.00 89 1018.5
20240722125018 69 0.0 2.0 0.00 1.56 0.00 91 1018.4
20240722124020 69 0.0 0.0 0.00 1.56 0.00 93 1018.5
20240722123018 68 0.0 0.0 0.00 1.56 0.00 94 1018.5
20240722122017 68 0.0 1.0 0.00 1.56 0.00 95 1018.5
20240722121018 68 0.0 0.0 0.00 1.56 0.00 95 1018.6
20240722120017 67 0.0 0.0 0.00 1.56 0.00 95 1018.5
20240722115018 67 0.0 0.0 0.00 1.56 0.00 95 1018.7
20240722114038 67 0.0 0.0 0.00 1.56 0.00 95 1018.6
20240722113017 67 0.0 0.0 0.00 1.56 0.00 95 1018.7
20240722112017 67 0.0 0.0 0.00 1.56 0.00 95 1018.8
20240722111017 67 0.0 0.0 0.00 1.56 0.00 95 1018.8
20240722110038 67 0.0 0.0 0.00 1.56 0.00 95 1018.7
20240722105018 67 0.0 0.0 0.00 1.56 0.00 95 1018.5
20240722104018 67 0.0 0.0 0.00 1.56 0.00 95 1018.7
20240722103017 67 0.0 1.0 0.00 1.56 0.00 95 1018.8
20240722102018 67 0.0 0.0 0.00 1.56 0.00 95 1018.7
20240722101057 68 0.0 0.0 0.00 1.56 0.00 95 1018.7
20240722100017 67 0.0 0.0 0.00 1.56 0.00 95 1018.7
20240722095017 67 0.0 0.0 0.00 1.56 0.00 95 1018.7
20240722094020 67 0.0 1.0 0.00 1.56 0.00 95 1018.8
20240722093018 67 0.0 0.0 0.00 1.56 0.00 95 1018.9
20240722092017 67 0.0 0.0 0.00 1.56 0.00 94 1019.0
20240722091017 67 0.0 2.0 0.00 1.56 0.00 94 1019.1
20240722090017 67 0.0 1.0 0.00 1.56 0.00 94 1019.0
20240722085018 67 0.0 2.0 0.00 1.56 0.00 94 1019.0
20240722084037 67 0.0 1.0 0.00 1.56 0.00 93 1019.1
20240722083017 67 0.0 1.0 0.00 1.56 0.00 93 1018.9
20240722082017 67 0.0 0.0 0.00 1.56 0.00 93 1018.9
20240722081017 67 0.0 1.0 0.00 1.56 0.00 93 1018.9
20240722080017 67 0.0 4.0 0.00 1.56 0.00 93 1018.9
20240722075017 67 0.0 1.0 0.00 1.56 0.00 92 1018.9
20240722074017 67 0.0 0.0 0.00 1.56 0.00 92 1018.8
20240722073017 67 0.0 0.0 0.00 1.56 0.00 92 1019.0
20240722072017 67 0.0 0.0 0.00 1.56 0.00 91 1019.1
20240722071057 67 0.0 1.0 0.00 1.56 0.00 91 1019.0
20240722070037 67 0.0 0.0 0.00 1.56 0.00 91 1019.1
20240722065017 67 0.0 1.0 0.00 1.56 0.00 91 1019.2
20240722064017 67 0.0 0.0 0.00 1.56 0.00 90 1019.4
20240722063017 67 0.0 0.0 0.00 1.56 0.00 90 1019.5
20240722062017 68 0.0 0.0 0.00 1.56 0.00 90 1019.5
20240722061017 68 0.0 0.0 0.00 1.56 0.00 90 1019.6
20240722060017 68 0.0 1.0 0.00 1.56 0.00 90 1019.6
20240722055016 68 0.0 0.0 0.00 1.56 0.00 90 1019.7
20240722054017 68 0.0 0.0 0.00 1.56 0.00 89 1019.8
20240722053016 68 0.0 0.0 0.00 1.56 0.00 89 1019.9
20240722052016 68 0.0 0.0 0.00 1.56 0.00 89 1019.8
20240722051016 68 0.0 0.0 0.00 1.56 0.00 89 1019.8
20240722050615 69 0.0 0.0 0.00 1.56 0.00 88 1019.9
20240722050016 69 0.0 0.0 0.00 1.56 1.56 88 1019.9
20240722045036 69 0.0 0.0 0.00 1.56 1.56 88 1019.8
20240722044016 69 0.0 0.0 0.00 1.56 1.56 88 1019.8
20240722043036 69 0.0 0.0 0.00 1.56 1.56 87 1019.8
20240722042016 70 0.0 0.0 0.00 1.56 1.56 87 1019.8
20240722041016 70 0.0 0.0 0.00 1.56 1.56 86 1019.8
20240722040016 70 0.0 0.0 0.00 1.56 1.56 85 1020.0
20240722035016 71 0.0 0.0 0.00 1.56 1.56 84 1019.9
20240722034016 71 0.0 0.0 0.00 1.56 1.56 83 1020.0
20240722033016 71 0.0 2.0 0.00 1.56 1.56 83 1020.1
20240722032016 72 0.0 1.0 0.00 1.56 1.56 83 1019.8
20240722031016 72 158 1.0 4.0 0.00 1.56 1.56 83 1019.8
20240722030019 72 0.0 5.0 0.00 1.56 1.56 83 1019.9
20240722025018 72 0.0 1.0 0.00 1.56 1.56 82 1020.2
20240722024017 73 158 1.0 4.0 0.00 1.56 1.56 81 1020.0
20240722023038 73 0.0 1.0 0.00 1.56 1.56 81 1020.0
20240722022037 73 0.0 2.0 0.00 1.56 1.56 81 1020.0
20240722021018 73 158 1.0 4.0 0.00 1.56 1.56 80 1019.8
20240722020018 74 0.0 1.0 0.00 1.56 1.56 79 1019.8
20240722015017 74 0.0 1.0 0.00 1.56 1.56 79 1019.8
20240722014018 74 0.0 2.0 0.00 1.56 1.56 78 1019.8
20240722013017 75 0.0 4.0 0.00 1.56 1.56 78 1019.9
20240722012018 75 158 1.0 4.0 0.00 1.56 1.56 77 1019.9
20240722011017 76 158 1.0 4.0 0.00 1.56 1.56 76 1019.8
20240722010017 76 158 1.0 4.0 0.00 1.56 1.56 75 1019.9
20240722005017 77 158 1.0 5.0 0.00 1.56 1.56 74 1019.8
20240722004037 77 0.0 1.0 0.00 1.56 1.56 74 1019.7
20240722003017 77 0.0 0.0 0.00 1.56 1.56 74 1019.6
20240722002018 78 0.0 0.0 0.00 1.56 1.56 73 1019.3
20240722001037 78 0.0 4.0 0.00 1.56 1.56 73 1019.3
20240722000037 78 0.0 2.0 0.00 1.56 1.56 72 1019.4
20240721235019 79 0.0 1.0 0.00 1.56 1.56 71 1019.4
20240721234017 79 0.0 0.0 0.00 1.56 1.56 71 1019.4
20240721233037 79 0.0 0.0 0.00 1.56 1.56 69 1019.2
20240721232017 79 225 1.0 3.0 0.00 1.56 1.56 70 1019.2
20240721231017 79 248 2.0 5.0 0.00 1.56 1.56 69 1019.3
20240721230017 79 270 1.0 3.0 0.00 1.56 1.56 69 1019.5
20240721225017 79 270 2.0 4.0 0.00 1.56 1.56 68 1019.6
20240721224017 79 270 1.0 6.0 0.00 1.56 1.56 69 1019.8
20240721223037 79 270 1.0 3.0 0.00 1.56 1.56 70 1019.9
20240721222017 79 270 2.0 6.0 0.00 1.56 1.56 69 1020.1
20240721221017 80 0.0 2.0 0.00 1.56 1.56 69 1020.1
20240721220017 79 0.0 0.0 0.00 1.56 1.56 71 1020.1
20240721215017 79 270 2.0 8.0 0.00 1.56 1.56 70 1020.1
20240721214017 79 293 1.0 4.0 0.00 1.56 1.56 70 1020.4
20240721213057 79 293 1.0 3.0 0.00 1.56 1.56 70 1020.5
20240721212037 79 293 1.0 6.0 0.00 1.56 1.56 72 1020.8
20240721211017 79 293 1.0 4.0 0.00 1.56 1.56 71 1020.8
20240721210017 78 293 1.0 4.0 0.00 1.56 1.56 73 1020.9
20240721205017 78 293 2.0 4.0 0.00 1.56 1.56 74 1020.9
20240721204038 77 293 2.0 5.0 0.00 1.56 1.56 72 1020.9
20240721203017 77 293 3.0 8.0 0.00 1.56 1.56 73 1020.9
20240721202037 76 248 1.0 4.0 0.00 1.56 1.56 77 1020.9
20240721201017 76 248 1.0 3.0 0.00 1.56 1.56 77 1021.0
20240721200017 75 248 1.0 4.0 0.00 1.56 1.56 80 1020.9
20240721195017 75 248 1.0 2.0 0.00 1.56 1.56 80 1021.2
20240721194017 74 248 2.0 5.0 0.00 1.56 1.56 81 1021.1
20240721193016 74 203 1.0 4.0 0.00 1.56 1.56 84 1021.2
20240721192017 73 203 1.0 4.0 0.00 1.56 1.56 84 1021.2
20240721191017 72 203 1.0 4.0 0.00 1.56 1.56 86 1021.3
20240721190017 71 203 1.0 4.0 0.00 1.56 1.56 91 1021.6
20240721185037 70 203 1.0 3.0 0.00 1.56 1.56 94 1021.5
20240721184016 69 0.0 3.0 0.00 1.56 1.56 95 1021.4
20240721183017 69 0.0 3.0 0.00 1.56 1.56 96 1021.4
20240721182037 69 0.0 2.0 0.00 1.56 1.56 97 1021.5
20240721181017 68 203 1.0 3.0 0.00 1.56 1.56 97 1021.5
20240721180017 68 0.0 1.0 0.00 1.56 1.56 97 1021.4
20240721175017 67 203 1.0 5.0 0.00 1.56 1.56 97 1021.5
20240721174016 67 203 1.0 3.0 0.00 1.56 1.56 97 1021.5
20240721173017 67 203 2.0 5.0 0.00 1.56 1.56 97 1021.7
20240721172017 66 203 1.0 5.0 0.01 1.56 1.56 96 1021.8
20240721171017 66 203 1.0 5.0 0.02 1.56 1.56 96 1022.0
20240721170016 66 203 2.0 8.0 0.06 1.56 1.56 96 1022.2
20240721165016 66 180 1.0 7.0 0.13 1.56 1.56 96 1022.4
20240721164016 66 135 2.0 7.0 0.14 1.56 1.56 96 1022.5
20240721163016 66 135 1.0 4.0 0.17 1.56 1.56 96 1022.5
20240721162017 66 135 2.0 7.0 0.22 1.55 1.55 96 1022.4
20240721161016 66 135 3.0 8.0 0.31 1.54 1.54 95 1022.3
20240721160016 67 270 2.0 7.0 0.40 1.50 1.50 96 1022.3
20240721155037 67 0.0 0.0 0.55 1.43 1.43 96 1022.1
20240721154037 67 0.0 0.0 1.04 1.42 1.42 96 1021.7
20240721153016 67 0.0 1.0 1.01 1.39 1.39 95 1021.8
20240721152017 67 0.0 2.0 0.95 1.33 1.33 95 1022.0
20240721151036 68 293 1.0 3.0 0.85 1.23 1.23 95 1021.9
20240721150017 68 293 1.0 4.0 0.73 1.10 1.10 95 1022.0
20240721145017 69 270 3.0 8.0 0.54 0.88 0.88 94 1022.0
20240721144016 70 225 3.0 9.0 0.08 0.38 0.38 94 1022.0
20240721143016 70 225 1.0 3.0 0.38 0.38 0.38 94 1021.4
20240721142017 70 0.0 1.0 0.38 0.38 0.38 93 1021.4
20240721141036 70 0.0 1.0 0.38 0.38 0.38 93 1021.5
20240721140016 70 0.0 2.0 0.37 0.37 0.37 92 1021.5
20240721135016 71 248 1.0 5.0 0.34 0.34 0.34 91 1021.6
20240721134016 72 248 1.0 3.0 0.30 0.30 0.30 89 1021.4
20240721133016 72 0.0 3.0 0.00 0.00 0.00 88 1021.5